sat.trackr.live / text

‹ back to catalog

STARLINK-31505

NORAD 59237 · 2024-049G

PAYLOAD ACTIVE UNKNOWN

§ Identity

Operator
Country
US
Launch date
2024-03-16
Launch site
AFETR
Launch vehicle
Mass (kg)
RCS (m²)

Purposes: comms

External: N2YO · Heavens-Above · Gunter

§ Orbital elements

Epoch: 2026-09-20T00:08:50.405280Z

Period
94.27 min
Inclination
43.0055°
Eccentricity
0.0001724
Mean motion
15.27578671 rev/d
Perigee alt
481.9 km
Apogee alt
484.2 km
Semi-major
6,861.2 km
B*
2.5565e-5
RAAN
126.2050°
Arg perigee
271.4540°
Mean anomaly
88.6114°
Rev number
14,212

§ Raw data

STARLINK-315051 59237U 24049G   26263.00613895  .00000441  00000+0  25565-4 0  99912 59237  43.0055 126.2050 0001724 271.4540  88.6114 15.27578671142125

JSON: /api/v1/satellites/59237 · /tle

For live sub-satellite position, see the globe view (requires WebGL).

§ Visibility from observer

Set your observer location to see the next 7 days of passes ≥ 10°. The values pass through the URL so the page stays shareable.

No JS? Fill the form by hand. The geolocation button needs JavaScript.